Location: Ciula Mare
(45.6000°N, 22.8167°E)
Time: 05:25:46
(UTC+00:00)

Cosmos 841 Rocket - Pass Details

Date: 03 February 2023
Orbit: 746 x 771 km, 74.0° (Epoch: 29 March)

Event Time Altitude Azimuth Distance (km) Brightness Sun altitude
Rises 16:49:36 0° 343° (NNW) 3,256 6.8 -12.9°
Reaches altitude 10° 16:52:08 10° 351° (N) 2,325 6.0 -13.3°
Maximum altitude 16:57:06 40° 61° (ENE) 1,129 3.9 -14.2°
Drops below altitude 10° 17:02:00 10° 131° (SE) 2,303 5.6 -15.0°
Enters shadow 17:02:17 - 132° (SE) 2,399 5.7 -15.1°
